Zurück zum Katalog

COSMOS 970 DEB

AktivLEO
NORAD 64981·DEBRIS·🇷🇺 Russia

Gestartet Dec 21, 1977 von Baikonur Cosmodrome

Loading…

Nächste Überflüge (nächste 24 Stunden)

TLE

VeraltetSource: Space-Track

Epoche: Sep 4, 2026, 21:22 UTC

1 64981U 77121CS  26247.89057892 -.00000047  00000-0  39243-4 0  9992
2 64981  65.8454 113.7872 0132159 214.7145 144.5233 13.58635711 97587

Verfolge COSMOS 970 DEB in Echtzeit mit AllMySat

Download on the App Store